{"data":{"norad_id":64040,"intl_designator":"2025-102U","name":"STARLINK-34117","alt_names":[],"object_type":"PAYLOAD","status":"ACTIVE","operator":null,"country":"US","launch_date":"2025-05-16","launch_site_code":"AFWTR","launch_vehicle":null,"mission":null,"orbit_class":"UNKNOWN","rcs_meters":null,"size_class":null,"mass_kg":null,"dimensions":null,"purposes":["comms"],"wikipedia_slug":null,"has_3d_model":false,"image_url":null,"decayed_at":null,"tle_current":{"epoch":"2026-05-24T19:50:31.445376Z","epoch_age_seconds":85934,"freshness":"FRESH","line1":"1 64040U 25102U   26144.82675284 -.00000382  00000+0 -24262-4 0  9997","line2":"2 64040  70.0008 282.6037 0002630 271.8299  88.2559 14.98341456 57293","mean_motion":14.98341456,"eccentricity":0.000263,"inclination_deg":70.0008,"raan_deg":282.6037,"arg_perigee_deg":271.8299,"mean_anomaly_deg":88.2559,"bstar":-2.4262e-5,"rev_number":5729,"period_min":96.106264312025,"perigee_km":570.192573022,"apogee_km":573.84835584829,"semimajor_km":6950.1574644351,"source":"CELESTRAK","updated_at":"2026-05-25T13:38:20.253719Z"}}}